Simultaneous Nadir Overpasses (SNOs) Predictions

Prediction of SNOs near equator between NOAA-19 and NPP Satellite Orbit:

Table of predicted SNOs near equator for the next 14.0 days since TLE Epoch: 1/20/2012
Index Date (NOAA-19) Time (NOAA-19) NOAA-19 Lat,Lon Date (NPP) Time (NPP) NPP Lat,Lon Distance(km) Time Diff (sec)
1 01/27/2012 21:23:55 -30.00, 56.85 01/27/2012 21:20:55 -29.79, 55.89 95.47 180
2 01/27/2012 22:15:04 29.99,-135.93 01/27/2012 22:11:44 29.80,-136.82 87.59 200
3 01/27/2012 23:06:00 -29.96, 31.34 01/27/2012 23:02:25 -29.78, 30.52 81.75 215
4 01/27/2012 23:57:09 29.96,-161.45 01/27/2012 23:53:14 29.78,-162.19 73.89 235
5 01/28/2012 00:48:06 -29.99, 5.81 01/28/2012 00:43:56 -29.82, 5.13 68.00 250
6 01/28/2012 01:39:15 29.98, 173.02 01/28/2012 01:34:46 29.88, 172.41 60.11 269
7 01/28/2012 02:30:11 -29.96, -19.71 01/28/2012 02:25:27 -29.86, -20.26 54.21 284
8 01/28/2012 03:21:20 29.95, 147.51 01/28/2012 03:16:16 29.87, 147.04 46.33 304
9 01/28/2012 04:12:17 -29.99, -45.24 01/28/2012 04:06:58 -29.91, -45.65 40.39 319
10 01/28/2012 05:03:26 29.98, 121.98 01/28/2012 04:57:47 29.91, 121.65 32.53 339
11 01/28/2012 05:54:22 -29.95, -70.75 01/28/2012 05:48:28 -29.89, -71.02 26.66 354
12 01/28/2012 06:45:31 29.95, 96.46 01/28/2012 06:39:17 29.90, 96.28 18.87 374
13 01/28/2012 07:36:28 -29.98, -96.28 01/28/2012 07:29:59 -29.93, -96.41 13.08 389
14 01/28/2012 08:27:37 29.98, 70.93 01/28/2012 08:20:48 29.94, 70.89 6.02 409
15 01/28/2012 09:17:41 -26.94,-120.97 01/28/2012 09:10:38 -26.94,-120.98 0.31 423
16 01/28/2012 10:00:17 -3.08, 53.37 01/28/2012 09:52:56 -3.07, 53.35 1.62 441
17 01/28/2012 10:51:03 3.53,-139.25 01/28/2012 10:43:29 3.52,-139.22 4.39 454
18 01/28/2012 11:42:37 -2.23, 27.65 01/28/2012 11:34:41 -2.21, 27.78 14.83 476
19 01/28/2012 12:33:44 1.46,-165.25 01/28/2012 12:25:35 1.42,-165.06 21.02 489
20 01/28/2012 13:25:18 -0.16, 1.66 01/28/2012 13:16:47 -0.11, 1.94 31.45 511
21 01/28/2012 14:16:24 -0.55, 168.78 01/28/2012 14:07:40 -0.62, 169.11 37.64 524
22 01/28/2012 15:07:58 1.86, -24.32 01/28/2012 14:58:52 1.93, -23.89 48.02 546
23 01/28/2012 15:59:05 -2.62, 142.78 01/28/2012 15:49:46 -2.72, 143.26 54.21 559
24 01/28/2012 16:58:05 30.0
